Temp
8 8 8 8 8 8 8 8 8 8 8 8 8 7 7 7 7 7 7 7 6 6 6 6 6 6 6 6 6 6 5 5 6
9 8 8 8 8 8 8 8 8 8 8 7 7 8 7 7 7 7 7 7 6 6 6 6 6 5 5 5 6 5 5 5 5
8 8 8 8 8 8 8 8 8 8 8 7 7 7 7 7 7 7 7 6 6 6 6 6 6 5 5 5 5 5 5 5 5
8 8 7 7 7 7 7 7 7 7 7 7 7 7 7 7 7 6 6 6 6 6 6 6 6 6 5 5 5 5 5 5 5
8 8 8 7 7 7 6 6 6 6 6 6 6 7 7 6 6 6 6 6 6 6 6 6 6 6 6 5 5 5 5 5 5
7 7 6 6 6 6 6 6 6 6 6 6 6 6 6 6 6 6 6 6 6 6 6 6 6 6 6 5 5 5 5 4 5
6 6 6 5 5 5 6 6 6 6 6 6 6 6 6 6 5 5 5 6 6 6 6 6 6 6 6 5 5 5 5 3 3
6 6 5 5 5 5 5 5 5 5 5 5 5 5 5 6 5 5 5 5 6 6 6 6 6 5 5 5 5 5 5 5 4
5 5 5 5 5 5 5 5 5 5 5 5 5 5 5 5 5 5 5 5 5 5 5 5 5 5 4 4 4 4 4 4 4
5 5 5 5 5 4 4 4 5 5 5 5 5 4 5 5 5 5 5 5 5 5 4 4 4 3 3 3 3 3 3 2 2
4 4 4 4 4 4 4 4 4 4 4 4 4 4 4 4 4 4 4 4 4 4 4 3 3 3 2 2 2 1 1 1 1
4 4 4 4 4 4 4 4 4 4 4 4 4 4 4 4 4 4 4 4 4 4 3 3 3 3 2 1 1 0 -1 -1 -0
4 4 4 4 4 4 3 4 4 4 4 4 3 4 4 4 4 4 4 4 3 3 3 3 2 2 2 1 0 -1 -2 -2 -0
4 4 4 3 3 3 3 3 3 3 4 3 3 3 3 4 4 3 4 3 3 3 3 3 2 2 1 1 0 -1 -1 -1 -0
4 4 3 3 3 3 3 3 3 3 3 3 3 3 3 3 3 3 3 3 3 3 3 2 2 2 1 1 1 -2 -1 -1 -0
3 3 3 3 3 3 3 3 3 3 3 2 3 3 3 3 3 3 3 3 3 3 2 2 2 2 1 1 2 0 -1 -1 -1
3 3 3 3 3 3 3 3 3 2 2 2 2 2 2 2 3 3 3 3 2 2 2 2 2 2 1 1 1 0 -0 -0 1
3 3 3 3 3 3 3 3 3 2 2 1 1 1 1 2 2 2 2 2 2 2 2 2 2 2 1 1 1 1 -0 0 2
3 3 3 3 3 2 2 2 2 2 2 2 1 1 1 1 1 1 2 2 2 2 2 2 2 2 2 1 1 1 1 1 1
2 2 3 2 2 2 2 2 2 2 1 1 1 1 1 1 1 1 1 1 1 1 1 1 2 2 2 2 1 1 1 1 1
Height
3157 3154 3153 3151 3150 3149 3148 3146 3144 3143 3141 3140 3139 3138 3137 3136 3135 3135 3135 3135 3134 3135 3135 3135 3135 3135 3134 3135 3135 3135 3134 3134 3134
3154 3152 3150 3149 3147 3146 3145 3143 3142 3140 3138 3137 3136 3135 3133 3132 3132 3131 3131 3130 3130 3130 3130 3130 3130 3131 3131 3131 3131 3132 3132 3131 3132
3152 3150 3148 3146 3145 3143 3142 3140 3138 3137 3135 3133 3132 3131 3130 3128 3127 3127 3126 3126 3126 3126 3125 3126 3126 3127 3127 3127 3128 3128 3129 3129 3129
3149 3147 3145 3143 3141 3139 3138 3136 3134 3132 3131 3130 3129 3128 3126 3125 3123 3122 3122 3121 3120 3121 3121 3121 3121 3121 3122 3123 3124 3124 3125 3125 3126
3146 3144 3142 3140 3139 3137 3136 3134 3132 3130 3129 3127 3125 3124 3122 3121 3120 3119 3117 3116 3116 3116 3116 3116 3115 3116 3116 3116 3118 3119 3119 3119 3120
3144 3141 3139 3137 3136 3134 3132 3130 3128 3126 3124 3123 3121 3119 3117 3116 3115 3114 3113 3112 3112 3111 3111 3111 3111 3110 3110 3110 3111 3113 3111 3109 3112
3140 3138 3136 3134 3132 3130 3128 3126 3123 3121 3119 3117 3116 3114 3113 3111 3110 3109 3108 3108 3107 3106 3105 3105 3104 3104 3103 3103 3104 3104 3103 3102 3106
3137 3135 3133 3130 3128 3126 3123 3121 3119 3117 3115 3113 3110 3108 3106 3105 3104 3103 3103 3102 3102 3101 3100 3099 3099 3098 3097 3097 3096 3096 3095 3096 3098
3134 3132 3129 3127 3124 3122 3120 3118 3115 3113 3110 3108 3106 3103 3101 3099 3099 3098 3097 3097 3096 3095 3094 3093 3092 3091 3091 3091 3089 3087 3087 3087 3090
3131 3129 3127 3123 3121 3118 3116 3114 3111 3109 3106 3104 3101 3099 3097 3095 3094 3093 3092 3092 3091 3089 3088 3087 3086 3084 3084 3083 3082 3079 3077 3077 3080
3128 3126 3123 3121 3118 3115 3112 3110 3107 3104 3102 3099 3097 3095 3093 3091 3090 3089 3088 3087 3086 3085 3084 3082 3080 3078 3077 3075 3075 3072 3070 3070 3072
3125 3123 3120 3118 3115 3111 3109 3106 3103 3100 3098 3095 3092 3090 3088 3087 3086 3085 3084 3083 3082 3081 3079 3077 3074 3072 3071 3069 3067 3064 3065 3065 3066
3122 3120 3117 3114 3111 3108 3104 3102 3099 3096 3094 3091 3089 3087 3085 3083 3083 3082 3081 3079 3078 3076 3075 3072 3069 3068 3066 3066 3057 3057 3059 3061 3060
3120 3117 3114 3110 3108 3104 3100 3098 3096 3093 3090 3088 3086 3084 3082 3080 3079 3078 3077 3076 3074 3072 3071 3068 3066 3065 3064 3061 3054 3049 3056 3058 3058
3116 3113 3110 3106 3104 3100 3096 3094 3092 3090 3087 3085 3083 3081 3079 3077 3076 3075 3073 3072 3070 3069 3067 3065 3064 3062 3061 3058 3055 3041 3053 3055 3055
3112 3109 3106 3103 3100 3097 3093 3091 3089 3086 3084 3082 3080 3078 3076 3075 3073 3071 3070 3069 3068 3066 3065 3063 3061 3059 3058 3056 3057 3056 3054 3055 3053
3109 3105 3102 3099 3096 3093 3090 3088 3086 3084 3082 3079 3077 3075 3075 3072 3070 3069 3068 3066 3065 3063 3062 3060 3059 3057 3056 3054 3054 3054 3052 3052 3051
3105 3102 3099 3096 3093 3090 3087 3086 3084 3081 3080 3077 3076 3073 3071 3069 3067 3066 3065 3064 3062 3060 3059 3058 3056 3056 3054 3053 3051 3051 3048 3049 3052
3101 3098 3096 3092 3090 3087 3085 3083 3081 3078 3076 3075 3074 3072 3070 3067 3065 3063 3062 3061 3059 3057 3056 3055 3054 3053 3052 3051 3050 3049 3048 3048 3049
3099 3096 3093 3091 3088 3085 3083 3080 3078 3075 3074 3071 3070 3069 3067 3066 3065 3062 3060 3058 3056 3055 3053 3051 3051 3051 3050 3049 3049 3048 3048 3047 3045
Wind_Speed
18 18 16 16 16 17 16 16 17 18 18 18 17 17 17 18 20 21 21 22 22 21 20 21 21 20 19 19 19 19 19 15 15
19 17 16 17 17 17 18 19 19 18 18 17 17 16 17 18 19 20 20 21 21 22 23 24 23 23 22 22 21 21 20 19 17
20 19 17 17 17 17 18 18 17 17 18 18 18 18 19 19 20 20 21 20 20 21 23 24 26 27 26 26 24 24 23 22 19
20 19 18 17 16 16 17 17 17 17 18 19 20 21 21 21 21 22 22 21 20 21 22 24 26 28 30 30 28 26 26 26 25
20 20 19 19 18 18 19 19 19 19 20 20 21 22 23 23 22 23 23 22 21 21 18 20 23 26 29 31 32 28 30 31 29
21 20 18 17 17 18 20 20 20 20 21 21 21 22 23 23 23 23 22 21 20 20 21 23 24 26 25 28 32 36 34 40 34
20 19 18 18 18 19 20 20 20 20 20 21 21 22 22 22 22 22 21 21 20 21 23 25 26 27 30 30 30 36 44 46 37
19 18 18 18 20 22 22 22 22 22 22 21 22 21 21 21 21 22 21 21 22 23 24 26 27 28 30 32 35 35 42 50 43
18 18 19 20 22 22 21 21 22 23 24 24 23 22 22 21 20 21 20 21 23 24 25 26 27 27 27 30 35 39 40 44 48
19 20 21 21 20 20 20 21 22 23 24 24 23 22 21 20 19 20 19 20 22 23 24 25 26 24 25 28 32 39 43 41 43
19 20 21 22 21 20 21 22 23 24 24 23 21 20 20 19 18 18 18 20 20 21 22 23 22 22 24 27 33 34 40 38 41
20 22 23 24 24 23 23 23 24 26 25 22 20 19 17 17 16 16 17 18 20 19 20 19 19 21 22 25 27 24 26 26 23
21 22 23 24 24 23 23 23 25 25 23 21 19 18 17 15 15 15 16 18 19 19 19 16 17 19 20 24 16 23 21 23 18
21 24 23 22 23 23 23 24 24 23 21 19 17 17 16 14 14 14 15 17 17 17 16 14 15 15 17 14 15 30 13 19 14
22 21 21 22 22 21 20 21 22 20 18 16 15 15 14 13 13 13 13 15 15 15 15 13 13 12 13 8 13 14 10 15 9
19 18 19 20 21 21 19 19 20 18 16 15 14 13 13 12 11 12 12 14 14 13 12 12 11 10 9 7 12 20 14 13 9
19 20 20 19 19 19 18 18 18 16 15 15 13 13 12 11 11 11 12 13 13 11 11 11 11 11 8 6 9 13 10 10 11
18 19 19 18 18 17 16 16 16 16 15 14 13 13 13 13 12 12 12 13 12 12 10 10 10 12 10 8 9 9 8 8 11
17 17 17 16 16 15 15 15 15 14 14 15 15 15 15 14 13 12 11 12 12 12 11 10 11 11 13 9 8 8 8 10 11
19 19 19 19 17 16 15 14 13 13 14 14 14 14 15 16 16 16 14 11 12 12 13 11 9 11 11 14 12 10 9 10 8
Wind_Direction
327 325 318 311 305 300 295 293 293 295 295 292 290 287 282 280 279 278 277 272 271 267 263 263 264 264 264 263 262 261 270 273 266
324 322 319 312 307 304 301 300 300 300 299 296 294 291 288 285 283 281 278 276 272 269 265 262 261 260 261 263 263 260 260 263 267
325 322 318 311 306 303 301 300 300 300 299 298 296 293 290 287 285 283 280 277 275 272 270 266 261 260 260 259 259 259 257 260 261
321 317 312 305 300 298 297 298 297 297 297 296 296 293 290 289 288 285 282 281 278 276 274 273 268 263 259 259 258 256 257 253 253
316 314 311 308 306 306 306 306 307 308 307 304 301 296 292 287 284 283 281 281 282 282 282 281 278 271 263 258 255 256 255 252 246
317 315 313 309 308 307 306 306 306 307 307 304 301 299 296 290 284 283 279 277 278 283 287 285 282 279 274 266 256 250 253 247 240
315 314 312 310 308 306 305 304 304 304 303 302 301 300 297 291 283 284 280 277 276 282 285 281 280 279 276 269 261 251 250 248 241
315 314 311 308 307 308 308 309 309 309 306 304 303 300 297 292 286 287 285 281 280 284 284 283 282 279 277 273 268 259 253 255 247
316 313 311 309 309 309 309 310 311 312 312 313 310 304 300 295 288 291 290 286 283 284 285 285 283 278 273 271 270 268 262 260 254
315 315 314 313 311 312 312 312 312 311 312 314 311 308 303 297 291 294 293 287 284 286 286 284 282 282 279 277 273 265 264 264 264
321 322 321 317 313 312 311 312 312 311 312 312 310 308 303 297 293 296 294 289 288 287 287 288 289 288 283 282 276 262 262 265 259
323 323 319 315 312 312 312 313 312 310 312 311 311 310 307 295 295 298 295 293 291 290 289 295 298 293 285 273 268 266 252 244 244
322 321 318 315 312 312 313 314 311 311 311 311 312 312 309 298 296 300 301 300 296 294 294 299 304 298 295 266 266 258 240 228 230
319 319 317 316 314 313 316 316 311 310 310 310 314 312 310 300 294 299 304 301 298 299 298 305 306 305 290 273 277 269 214 224 223
318 319 318 318 314 316 321 319 315 311 310 312 313 313 311 304 295 298 304 301 301 302 305 307 307 310 286 283 296 291 203 227 236
319 320 320 319 316 318 323 320 317 313 312 314 314 316 315 310 304 299 301 300 301 304 308 311 310 308 294 285 275 264 243 242 220
319 321 319 315 316 317 316 314 314 311 309 309 312 316 317 315 312 304 298 294 298 303 309 312 312 308 305 294 273 259 258 236 238
319 321 320 319 318 315 314 310 310 311 309 307 310 312 314 317 316 311 308 298 295 296 298 303 307 308 304 302 289 271 268 261 240
310 314 317 319 316 314 314 312 309 307 307 309 309 309 308 309 310 307 307 301 295 292 294 292 296 297 300 294 293 293 271 250 242
312 319 321 318 315 312 310 310 310 311 310 308 305 304 305 307 307 306 305 299 294 290 289 286 280 285 287 291 287 279 278 272 276